sat.trackr.live / text

‹ back to catalog

STARLINK-36888

NORAD 68004 · 2026-039U

PAYLOAD ACTIVE UNKNOWN

§ Identity

Operator
Country
US
Launch date
2026-02-27
Launch site
AFETR
Launch vehicle
Mass (kg)
RCS (m²)

Purposes: comms

External: N2YO · Heavens-Above · Gunter

§ Orbital elements

Epoch: 2026-09-20T01:06:29.007648Z

Period
94.27 min
Inclination
42.9958°
Eccentricity
0.0001802
Mean motion
15.27586964 rev/d
Perigee alt
481.8 km
Apogee alt
484.3 km
Semi-major
6,861.2 km
B*
4.9645e-4
RAAN
31.6603°
Arg perigee
275.5424°
Mean anomaly
84.5222°
Rev number
3,142

§ Raw data

STARLINK-368881 68004U 26039U   26263.04616907  .00013427  00000+0  49645-3 0  99972 68004  42.9958  31.6603 0001802 275.5424  84.5222 15.27586964 31422

JSON: /api/v1/satellites/68004 · /tle

For live sub-satellite position, see the globe view (requires WebGL).

§ Visibility from observer

Set your observer location to see the next 7 days of passes ≥ 10°. The values pass through the URL so the page stays shareable.

No JS? Fill the form by hand. The geolocation button needs JavaScript.